Weather History for Cincinnati, OH

Change the Weather History Date:

Saturday, January 12, 2013

  Actual Average Record
Temperature  
Mean Temperature 52 °F -  
Max Temperature 64 °F 36 °F 67 °F (1960)
Min Temperature 39 °F 19 °F -4 °F (1977)
Degree Days  
Heating Degree Days 14    
Growing Degree Days 2 (Base 50)    
Moisture  
Dew Point 49 °F    
Average Humidity 97    
Maximum Humidity 100    
Minimum Humidity 84    
Precipitation  
Precipitation 0.00 in - - ()
Sea Level Pressure  
Sea Level Pressure 29.97 in    
Wind  
Wind Speed 1 mph (South)    
Max Wind Speed 16 mph    
Max Gust Speed 23 mph    
Visibility 6 miles    
Events Fog , Rain    
Averages and records for this station are not official NWS values.
T = Trace of Precipitation, MM = Missing Value Source: NWS Daily Summary

Daily Weather History Graph

Daily Weather History Graph

Search for Another Location

Airport:

Trip Planner

Search our weather history database for the weather conditions in past years. The results will help you decide how hot, cold, wet, or windy it might be!

Date:

Astronomy

Jan. 12, 2013 Rise Set
Actual Time 7:56 AM EST 5:36 PM EST
Civil Twilight 7:26 AM EST 6:05 PM EST
Nautical Twilight 6:53 AM EST 6:38 PM EST
Astronomical Twilight 6:21 AM EST 7:11 PM EST
Moon 8:15 AM EST (1/12) 7:03 PM EST (1/12)
Length of Visible Light 10h 39m
Length of Day
9h 40m
New Moon, 1% of the Moon is Illuminated
Jan 12
New Moon
Jan 18
First Quarter
Jan 26
Full
Feb 3
Last Quarter
Feb 10
New

Hourly Weather History & Observations

Time (EST) Temp. Dew Point Humidity Pressure Visibility Wind Dir Wind Speed Gust Speed Precip Events Conditions
12:07 AM 42.8 °F 42.8 °F 100% 29.97 in 1.2 mi Calm Calm - N/A   Clear
12:20 AM 41.0 °F 41.0 °F 100% 29.97 in 0.8 mi Calm Calm - N/A   Clear
12:28 AM 42.8 °F 42.8 °F 100% 29.97 in 2.0 mi Calm Calm - N/A   Clear
12:36 AM 42.8 °F 42.8 °F 100% 29.97 in 1.2 mi Calm Calm - N/A   Clear
12:53 AM 43.0 °F 43.0 °F 100% 29.97 in 3.0 mi Calm Calm - N/A   Clear
1:01 AM 42.8 °F 42.8 °F 100% 29.98 in 1.5 mi Calm Calm - N/A   Clear
1:09 AM 41.0 °F 41.0 °F 100% 29.98 in 0.5 mi Calm Calm - N/A Fog Fog
1:21 AM 41.0 °F 41.0 °F 100% 29.98 in 1.2 mi Calm Calm - N/A   Clear
1:34 AM 41.0 °F 41.0 °F 100% 29.97 in 0.5 mi Calm Calm - N/A Fog Fog
1:53 AM 42.1 °F 42.1 °F 100% 29.98 in 0.8 mi Calm Calm - N/A   Clear
2:03 AM 39.2 °F 39.2 °F 100% 29.98 in 0.2 mi Calm Calm - N/A Fog Fog
2:13 AM 41.0 °F 41.0 °F 100% 29.98 in 0.8 mi Calm Calm - N/A   Mist
2:19 AM 42.8 °F 42.8 °F 100% 29.98 in 1.0 mi Calm Calm - N/A   Scattered Clouds
2:41 AM 41.0 °F 41.0 °F 100% 29.99 in 0.8 mi Calm Calm - N/A   Mist
2:53 AM 41.0 °F 41.0 °F 100% 29.99 in 2.5 mi Calm Calm - N/A   Mostly Cloudy
3:00 AM 41.0 °F 41.0 °F 100% 29.99 in 7.0 mi Calm Calm - N/A   Mostly Cloudy
3:12 AM 42.8 °F 42.8 °F 100% 29.99 in 1.8 mi Calm Calm - N/A   Mostly Cloudy
3:17 AM 41.0 °F 41.0 °F 100% 29.99 in 0.8 mi Calm Calm - N/A   Mist
3:40 AM 42.8 °F 42.8 °F 100% 29.99 in 2.0 mi Calm Calm - N/A   Mostly Cloudy
3:49 AM 42.8 °F 42.8 °F 100% 29.99 in 4.0 mi Calm Calm - N/A   Overcast
3:53 AM 43.0 °F 43.0 °F 100% 29.99 in 7.0 mi Calm Calm - N/A   Overcast
4:50 AM 42.8 °F 42.8 °F 100% 29.99 in 10.0 mi Calm Calm - N/A   Mostly Cloudy
4:53 AM 42.1 °F 42.1 °F 100% 29.99 in 10.0 mi Calm Calm - N/A   Mostly Cloudy
5:29 AM 42.8 °F 42.8 °F 100% 29.98 in 2.0 mi Calm Calm - N/A   Overcast
5:38 AM 42.8 °F 42.8 °F 100% 29.98 in 7.0 mi Calm Calm - N/A   Overcast
5:53 AM 44.1 °F 44.1 °F 100% 29.99 in 9.0 mi Calm Calm - N/A   Overcast
6:53 AM 43.0 °F 43.0 °F 100% 30.01 in 10.0 mi Calm Calm - N/A   Overcast
7:53 AM 43.0 °F 43.0 °F 100% 30.03 in 10.0 mi Calm Calm - N/A   Scattered Clouds
8:53 AM 45.0 °F 45.0 °F 100% 30.05 in 5.0 mi Calm Calm - N/A Fog Patches of Fog
9:53 AM 51.1 °F 51.1 °F 100% 30.05 in 7.0 mi Calm Calm - N/A   Clear
10:53 AM 55.0 °F 55.0 °F 100% 30.04 in 8.0 mi Calm Calm - N/A   Scattered Clouds
11:53 AM 60.1 °F 57.9 °F 93% 30.02 in 10.0 mi Calm Calm - N/A   Scattered Clouds
12:53 PM 64.9 °F 60.1 °F 84% 30.00 in 10.0 mi SSE 4.6 mph - N/A   Overcast
1:13 PM 64.4 °F 60.8 °F 88% 29.99 in 10.0 mi SW 3.5 mph - N/A   Overcast
1:53 PM 64.0 °F 60.1 °F 87% 29.99 in 10.0 mi Calm Calm - N/A   Overcast
2:53 PM 63.0 °F 59.0 °F 87% 29.99 in 10.0 mi Calm Calm - N/A   Overcast
3:24 PM 62.6 °F 60.8 °F 94% 29.98 in 10.0 mi Calm Calm - N/A   Overcast
3:53 PM 64.0 °F 60.1 °F 87% 29.97 in 10.0 mi East 4.6 mph - N/A   Scattered Clouds
4:53 PM 62.1 °F 59.0 °F 90% 29.94 in 10.0 mi North 5.8 mph - N/A   Overcast
5:35 PM 60.8 °F 57.2 °F 88% 29.93 in 8.0 mi Calm Calm - N/A   Overcast
5:53 PM 61.0 °F 59.0 °F 93% 29.94 in 10.0 mi Calm Calm - 0.00 in   Overcast
6:53 PM 60.1 °F 60.1 °F 100% 29.92 in 8.0 mi SE 3.5 mph - N/A   Overcast
7:53 PM 63.0 °F 61.0 °F 93% 29.89 in 10.0 mi Variable 4.6 mph - N/A   Overcast
8:53 PM 64.0 °F 62.1 °F 93% 29.88 in 10.0 mi South 11.5 mph - N/A   Overcast
9:53 PM 64.9 °F 62.1 °F 90% 29.86 in 10.0 mi SSW 13.8 mph 18.4 mph N/A   Overcast
10:00 PM 64.4 °F 62.6 °F 94% 29.86 in 9.0 mi South 16.1 mph 23.0 mph 0.00 in Rain Light Rain
10:35 PM 64.4 °F 62.6 °F 94% 29.84 in 10.0 mi South 16.1 mph - 0.00 in   Mostly Cloudy
10:53 PM 64.9 °F 62.1 °F 90% 29.83 in 10.0 mi South 15.0 mph 20.7 mph 0.00 in   Overcast
11:53 PM 64.0 °F 61.0 °F 90% 29.83 in 10.0 mi South 13.8 mph - N/A   Overcast